Location: Albany
(35.0170°S, 117.8920°E)
Time: 02:02:21
(UTC+08:00)

Explorer 7 - Pass Details

Date: 24 January 2021
Orbit: 484 x 677 km, 50.3° (Epoch: 01 March)

Event Time Altitude Azimuth Distance (km) Brightness Sun altitude
Rises 18:06:59 0° 258° (WSW) 3,021 12.6 13.5°
Reaches altitude 10° 18:10:12 10° 237° (WSW) 2,087 11.5 12.9°
Maximum altitude 18:13:15 16° 198° (SSW) 1,670 9.8 12.3°
Drops below altitude 10° 18:16:15 10° 158° (SSE) 2,029 9.7 11.7°
Sets 18:19:19 0° 136° (SE) 2,896 10.2 11.1°
